{"data":{"norad_id":69852,"intl_designator":"2026-155E","name":"QIANFAN-223","alt_names":[],"object_type":"PAYLOAD","status":"ACTIVE","operator":null,"country":"PRC","launch_date":"2026-07-05","launch_site_code":"WSC","launch_vehicle":null,"mission":null,"orbit_class":"UNKNOWN","rcs_meters":null,"size_class":null,"mass_kg":null,"dimensions":null,"purposes":[],"wikipedia_slug":null,"has_3d_model":false,"image_url":null,"decayed_at":null,"tle_current":{"epoch":"2026-09-20T03:34:53.067648Z","epoch_age_seconds":51966,"freshness":"FRESH","line1":"1 69852U 26155E   26263.14922532  .00000069  00000+0  89001-4 0  9992","line2":"2 69852  89.0091  53.7883 0034722  12.6540 347.5474 13.49929195 10668","mean_motion":13.49929195,"eccentricity":0.0034722,"inclination_deg":89.0091,"raan_deg":53.7883,"arg_perigee_deg":12.654,"mean_anomaly_deg":347.5474,"bstar":8.9001e-5,"rev_number":1066,"period_min":106.67226142924,"perigee_km":1046.6488730692,"apogee_km":1098.3892088802,"semimajor_km":7450.6560409747,"source":"CELESTRAK","updated_at":"2026-09-20T09:00:25.134515Z"}}}